Погода в Нур-Тухуме

Россия / Республика Бурятия     50°48′27″N   106°26′29″E
темп.,
°C
ветер,
м/с
пор.,
м/с
влажн.,
%
обл.,
%
осадки,
мм/ч
давл.,
гПа
погр.,
м
17 мая, пн
пн1723:00+11в2260100 0.0 100912
02:00+9ююз00695 0.0 100710
05:00+8юз227259 0.0 100513
08:00+13сз235582 0.0 1005446
11:00+11ссв7968100 0.2 1007606
14:00+15с8947100 0.3 10061221
17:00+15ссв5742100 0.0 10051539
20:00+12ссв6854100 0.0 1007601
18 мая, вт
вт1823:00+8св3571100 0.0 1009103
02:00+8ссв2275100 0.0 100968
05:00+7ссв2578100 0.1 1010472
08:00+6св1374100 1.5 1012629
11:00+9з2263100 0.1 1011751
14:00+13юз435047 0.1 10091486
17:00+14зюз334588 0.0 10061479
20:00+12юз355424 0.0 1004112
19 мая, ср
ср1923:00+9ююз34685 0.0 100271
02:00+8ю467254 0.0 997110
05:00+7юз3580100 0.0 99591
08:00+11зсз266312 0.0 996378
11:00+12ссз11135863 0.0 10021223
14:00+12с910499 0.0 10041192
17:00+13ссв554329 0.0 10031033
20:00+11ссв234420 0.0 100175
20 мая, чт
чт2023:00+8с115163 0.0 100110
02:00+6всв115973 0.0 99810
05:00+6ссв2259100 0.0 99812
08:00+9с3546100 0.0 1000372
11:00+12ссв574062 0.0 1000864
14:00+17св5534100 0.0 9971197
17:00+20св463318 0.0 9931447
20:00+17ссв3447100 0.1 99163
21 мая, пт
пт2123:00+13ссз3560100 0.2 991115
02:00+9с4106914 0.4 993424
05:00+5ссз3107793 0.0 996400
08:00+7с366884 0.1 996460
11:00+12с5656100 0.0 9941062
14:00+13с7855100 0.0 9921175
17:00+7ссз81071100 0.1 994617
20:00+5ссз81471100 0.4 997780